Location: Excel
(51.3833°N, 110.5667°W)
Time: 14:37:43
(UTC+00:00)

X-37B - Pass Details

Date: 09 December 2021
Orbit: 334 x 337 km, 45.0° (Epoch: 11 January)

Event Time Altitude Azimuth Distance (km) Brightness Sun altitude
Rises 01:09:47 0° 217° (SW) 2,097 5.2 -16.9°
Reaches altitude 10° 01:12:37 10° 185° (S) 1,264 3.4 -17.4°
Enters shadow 01:13:47 12° 161° (SSE) 1,142 2.9 -17.5°
